This is the latest recevied weather packets stored in our database for station/object HK4K-15. If no packets are shown the sender has not sent any weather packets the latest 10 day(s).
| Time | Temp. | Humidity | Pressure | Rain* | Wind** | Luminosity | Snow |
|---|---|---|---|---|---|---|---|
| 1788140873 | 70° F | 82% | 761.3 mmHg | 0.01 in | - | - | - |
| 1788139852 | 70° F | 82% | 761.3 mmHg | 0.01 in | - | - | - |
| 1788138832 | 70° F | 82% | 761.3 mmHg | 0.01 in | - | - | - |
| 1788137811 | 75° F | 61% | 761.3 mmHg | 0 in | - | - | - |
| 1788136791 | 75° F | 61% | 761.3 mmHg | 0.01 in | - | - | - |
| 1788135770 | 75° F | 61% | 760.6 mmHg | 0.01 in | - | - | - |
| 1788134750 | 74° F | 73% | 759.8 mmHg | 0 in | - | - | - |
| 1788134095 | 74° F | 73% | 759.8 mmHg | 0 in | - | - | - |
| 1788133075 | 74° F | 73% | 759.8 mmHg | 0 in | - | - | - |
| 1788132055 | 74° F | 73% | 759.1 mmHg | 0.01 in | - | - | - |
| 1788131053 | 83° F | 39% | 759.1 mmHg | 0.01 in | - | - | - |
| 1788130032 | 83° F | 39% | 759.1 mmHg | 0.01 in | - | - | - |
| 1788129012 | 73° F | 53% | 758.3 mmHg | 0.01 in | - | - | - |
| 1788126643 | 74° F | 53% | 757.6 mmHg | 0 in | - | - | - |
| 1788125623 | 75° F | 53% | 757.6 mmHg | 0 in | - | - | - |
| 1788124602 | 76° F | 53% | 757.6 mmHg | 0 in | - | - | - |
| 1788123582 | 77° F | 53% | 756.8 mmHg | 0 in | - | - | - |
| 1788122562 | 77° F | 54% | 756.8 mmHg | 0 in | - | - | - |
| 1788121541 | 77° F | 56% | 756.8 mmHg | 0 in | - | - | - |
| 1788120521 | 77° F | 59% | 756.8 mmHg | 0 in | - | - | - |
| 1788119500 | 77° F | 59% | 756.8 mmHg | 0 in | - | - | - |
| 1788118480 | 77° F | 59% | 757.6 mmHg | 0 in | - | - | - |
| 1788117459 | 77° F | 59% | 757.6 mmHg | 0 in | - | - | - |
| 1788116439 | 77° F | 62% | 757.6 mmHg | 0 in | - | - | - |
| 1788115418 | 77° F | 61% | 757.6 mmHg | 0 in | - | - | - |
* Rain latest hour (hover to see other rain measurements)
** Current wind speed in m/s (hover to see current wind gust speed)